Flag for China Weather past 2 weeks in Suzhou, Jiangsu, China

Now
46 °F

Passing clouds.


Feels Like: 42 °F
Forecast: 34 / 45 °F
Wind: 8 mph from North

Location: Shanghai Hongqiao Airport

Current Time: Dec 20, 2014 at 4:08:58 PM

Latest Report: Dec 20, 2014 at 3:30 PM


Visibility: N/A

Pressure: 30.33 "Hg

Humidity: 46%

Dew point: 27 °F

Location of SuzhouLocation

Historic Weather in Suzhou — Graph

°F

Suzhou temperature yesterday

Maximum temperature yesterday: 52 °F (at 11:30 AM)
Minimum temperature yesterday: 41 °F (at 10:30 PM)
Average temperature yesterday: 47 °F

Past Weeks' High & Low Weather Summary

 TemperatureHumidityPressure
High55 °F (Dec 7, 11:30 AM)93% (Dec 10, 8:30 PM)30.60 "Hg (Dec 10, 8:30 PM)
Low28 °F (Dec 18, 5:30 AM)17% (Dec 17, 12:00 PM)30.18 "Hg (Dec 7, 1:30 PM)
Average43 °F57%30.39 "Hg
* Reported Dec 5 3:00 PM — Dec 20 3:00 PM, Suzhou, Weather by CustomWeather, © 2014

Note: Actual official high and low records may vary slightly from our data, if they occured in-between our weather recording intervals... More about our weather records

Advertising

Suzhou weather history for previous 24 hours

 ConditionsComfort  
Time TempWeatherWind HumidityBarometerVisibility
3:00 PM
Dec 20
48 °FSunny.10 mph40%30.30 "Hg10 mi
2:30 PM48 °FPassing clouds.10 mph37%30.30 "HgN/A
2:00 PM48 °FPassing clouds.10 mph40%30.30 "HgN/A
1:30 PM48 °FSunny.10 mph37%30.30 "Hg10 mi
1:00 PM48 °FPassing clouds.10 mph34%30.30 "HgN/A
12:30 PM48 °FSunny.8 mph37%30.33 "Hg10 mi
12:00 PM48 °FPassing clouds.10 mph37%30.33 "HgN/A
11:30 AM46 °FSunny.13 mph43%30.33 "Hg10 mi
11:00 AM46 °FPassing clouds.13 mph46%30.36 "HgN/A
10:30 AM46 °FSunny.13 mph50%30.36 "Hg10 mi
10:00 AM45 °FSunny.13 mph53%30.36 "Hg10 mi
9:30 AM45 °FSunny.10 mph57%30.36 "Hg10 mi
9:00 AM43 °FSunny.10 mph66%30.36 "Hg10 mi
8:30 AM41 °FSunny.8 mph70%30.36 "Hg10 mi
8:00 AM41 °FClear.10 mph76%30.33 "Hg4 mi
7:30 AM39 °FClear.8 mph75%30.33 "Hg4 mi
7:00 AM39 °FClear.8 mph75%30.33 "Hg4 mi
6:30 AM39 °FClear.10 mph81%30.30 "Hg5 mi
6:00 AM39 °FClear.10 mph81%30.30 "Hg10 mi
5:30 AM41 °FClear.13 mph76%30.27 "Hg10 mi
5:00 AM41 °FClear.10 mph76%30.27 "Hg10 mi
4:30 AM41 °FClear.6 mph76%30.27 "Hg10 mi
4:00 AM41 °FClear.8 mph76%30.24 "Hg10 mi
3:30 AM39 °FClear.6 mph81%30.27 "Hg4 mi
3:00 AM39 °FClear.6 mph81%30.27 "Hg4 mi
2:30 AM37 °FClear.3 mph87%30.27 "Hg4 mi
2:00 AM37 °FClear.3 mph87%30.27 "Hg4 mi
1:30 AM37 °FFog.1 mph93%30.27 "Hg2 mi
1:00 AM37 °FFog.3 mph81%30.27 "Hg2 mi
12:30 AM37 °FFog.3 mph87%30.27 "Hg2 mi
12:00 AM39 °FFog.1 mph87%30.27 "Hg2 mi
11:30 PM
Dec 19
41 °FFog.3 mph81%30.27 "Hg2 mi
11:00 PM41 °FFog.6 mph81%30.27 "Hg2 mi
10:30 PM41 °FFog.3 mph81%30.27 "Hg2 mi
10:00 PM43 °FFog.6 mph81%30.27 "Hg2 mi
9:30 PM45 °FFog.3 mph76%30.27 "Hg3 mi
9:00 PM45 °FFog.3 mph76%30.27 "Hg3 mi
8:30 PM46 °FHaze.3 mph71%30.27 "Hg3 mi
8:00 PM46 °FHaze.3 mph71%30.27 "Hg3 mi
7:30 PM48 °FHaze.6 mph66%30.27 "Hg3 mi
7:00 PM48 °FHaze.8 mph66%30.27 "Hg3 mi
6:30 PM48 °FClear.6 mph66%30.27 "Hg4 mi
6:00 PM48 °FClear.3 mph66%30.27 "Hg4 mi
5:30 PM48 °FClear.6 mph66%30.24 "Hg4 mi
5:00 PM48 °FClear.10 mph62%30.24 "Hg4 mi
4:30 PM50 °FPassing clouds.8 mph58%30.27 "HgN/A
4:00 PM50 °FPassing clouds.6 mph58%30.24 "HgN/A
Weather by CustomWeather, © 2014

See weather overviewHow to use our weather pages